• en France
  • Liste des pays
  • À 7 jours
  • Température de l'eau
  • Carte satellitaire
  • Carte météo
  • Widgets météo
  • user-avatar
    Se connecter

    Météo par heure à Vratsa

    Ce jour, 21 Juillet, Samedi

    Heure Température Précipitation Vent Pression Humidité
    00:00 +18°C° 0 mm 2 m/s 707 mmHg 77%
    01:00 +17°C° 0 mm 2 m/s 707 mmHg 77%
    02:00 +17°C° 0 mm 2 m/s 707 mmHg 77%
    03:00 +17°C° 0 mm 2 m/s 707 mmHg 77%
    04:00 +16°C° 0 mm 2 m/s 707 mmHg 76%
    05:00 +16°C° 0 mm 2 m/s 707 mmHg 76%
    06:00 +18°C° 0 mm 2 m/s 707 mmHg 69%
    07:00 +20°C° 0 mm 2 m/s 708 mmHg 62%
    08:00 +23°C° 0 mm 2 m/s 708 mmHg 56%
    09:00 +25°C° 0 mm 2 m/s 708 mmHg 50%
    10:00 +26°C° 0 mm 3 m/s 708 mmHg 45%
    11:00 +28°C° 0 mm 3 m/s 708 mmHg 40%
    12:00 +29°C° 0 mm 3 m/s 708 mmHg 38%
    13:00 +30°C° 0 mm 3 m/s 708 mmHg 35%
    14:00 +31°C° 0 mm 3 m/s 708 mmHg 33%
    15:00 +30°C° 0 mm 3 m/s 708 mmHg 34%
    16:00 +30°C° 0 mm 3 m/s 708 mmHg 34%
    17:00 +30°C° 0 mm 3 m/s 707 mmHg 35%
    18:00 +28°C° 0 mm 3 m/s 707 mmHg 41%
    19:00 +26°C° 0 mm 2 m/s 707 mmHg 48%
    20:00 +23°C° 0 mm 1 m/s 707 mmHg 54%
    21:00 +22°C° 0 mm 1 m/s 707 mmHg 56%
    22:00 +21°C° 0 mm 1 m/s 707 mmHg 57%
    23:00 +20°C° 0 mm 2 m/s 707 mmHg 59%

    Demain, 22 Juillet, Dimanche

    Heure Température Précipitation Vent Pression Humidité
    00:00 +19°C° 0 mm 2 m/s 707 mmHg 59%
    01:00 +19°C° 0 mm 2 m/s 707 mmHg 60%
    02:00 +19°C° 0 mm 2 m/s 707 mmHg 60%
    03:00 +18°C° 0 mm 2 m/s 706 mmHg 61%
    04:00 +18°C° 0 mm 2 m/s 706 mmHg 61%
    05:00 +18°C° 0 mm 2 m/s 706 mmHg 62%
    06:00 +21°C° 0 mm 1 m/s 706 mmHg 58%
    07:00 +23°C° 0 mm 1 m/s 707 mmHg 54%
    08:00 +25°C° 0 mm 1 m/s 707 mmHg 50%
    09:00 +27°C° 0 mm 1 m/s 707 mmHg 45%
    10:00 +29°C° 0 mm 1 m/s 707 mmHg 40%
    11:00 +31°C° 0 mm 1 m/s 707 mmHg 35%
    12:00 +32°C° 0 mm 1 m/s 707 mmHg 34%
    13:00 +32°C° 0 mm 1 m/s 706 mmHg 32%
    14:00 +33°C° 0 mm 1 m/s 706 mmHg 30%
    15:00 +34°C° 0 mm 2 m/s 706 mmHg 32%
    16:00 +32°C° 0 mm 2 m/s 705 mmHg 34%
    17:00 +31°C° 0 mm 2 m/s 705 mmHg 36%
    18:00 +29°C° 0 mm 2 m/s 705 mmHg 41%
    19:00 +27°C° 0 mm 1 m/s 705 mmHg 47%
    20:00 +26°C° 0 mm 1 m/s 704 mmHg 52%
    21:00 +24°C° 0,2 mm 1 m/s 704 mmHg 55%
    22:00 +23°C° 0,2 mm 1 m/s 705 mmHg 59%
    23:00 +22°C° 0,2 mm 1 m/s 705 mmHg 62%

    Après-demain, 23 Juillet, Lundi

    Heure Température Précipitation Vent Pression Humidité
    00:00 +22°C° 0,1 mm 1 m/s 705 mmHg 64%
    01:00 +22°C° 0,1 mm 1 m/s 705 mmHg 65%
    02:00 +21°C° 0,1 mm 1 m/s 704 mmHg 66%
    03:00 +21°C° 0,3 mm 1 m/s 704 mmHg 69%
    04:00 +20°C° 0,3 mm 1 m/s 704 mmHg 72%
    05:00 +19°C° 0,3 mm 1 m/s 704 mmHg 75%
    06:00 +21°C° 0 mm 1 m/s 704 mmHg 69%
    07:00 +23°C° 0 mm 1 m/s 704 mmHg 64%
    08:00 +25°C° 0 mm 1 m/s 704 mmHg 59%
    09:00 +27°C° 0 mm 1 m/s 704 mmHg 54%
    10:00 +28°C° 0 mm 2 m/s 704 mmHg 48%
    11:00 +30°C° 0 mm 2 m/s 704 mmHg 43%
    12:00 +31°C° 0 mm 2 m/s 704 mmHg 42%
    13:00 +31°C° 0 mm 2 m/s 703 mmHg 40%
    14:00 +31°C° 0 mm 2 m/s 703 mmHg 38%
    15:00 +30°C° 1,1 mm 2 m/s 703 mmHg 44%
    16:00 +29°C° 1,1 mm 2 m/s 702 mmHg 51%
    17:00 +28°C° 1,1 mm 3 m/s 702 mmHg 57%
    18:00 +26°C° 4,7 mm 2 m/s 702 mmHg 67%
    19:00 +23°C° 4,7 mm 2 m/s 702 mmHg 77%
    20:00 +20°C° 4,7 mm 2 m/s 702 mmHg 88%
    21:00 +19°C° 5,4 mm 2 m/s 702 mmHg 89%
    22:00 +20°C° 5,4 mm 1 m/s 702 mmHg 91%
    23:00 +20°C° 5,4 mm 1 m/s 702 mmHg 93%

    24 Juillet, Mardi

    Heure Température Précipitation Vent Pression Humidité
    00:00 +19°C° 0,7 mm 1 m/s 702 mmHg 93%
    01:00 +19°C° 0,7 mm 1 m/s 702 mmHg 92%
    02:00 +18°C° 0,7 mm 2 m/s 702 mmHg 92%
    03:00 +18°C° 0,6 mm 1 m/s 702 mmHg 93%
    04:00 +18°C° 0,6 mm 1 m/s 702 mmHg 94%
    05:00 +18°C° 0,6 mm 1 m/s 702 mmHg 95%
    06:00 +18°C° 1 mm 1 m/s 702 mmHg 94%
    07:00 +18°C° 1 mm 2 m/s 702 mmHg 92%
    08:00 +19°C° 1 mm 2 m/s 703 mmHg 90%
    09:00 +19°C° 1,3 mm 2 m/s 703 mmHg 89%
    10:00 +19°C° 1,3 mm 2 m/s 703 mmHg 88%
    11:00 +19°C° 1,3 mm 2 m/s 703 mmHg 86%
    12:00 +20°C° 0,7 mm 2 m/s 703 mmHg 83%
    13:00 +21°C° 0,7 mm 2 m/s 703 mmHg 81%
    14:00 +23°C° 0,7 mm 2 m/s 703 mmHg 78%
    15:00 +23°C° 0,6 mm 2 m/s 703 mmHg 76%
    16:00 +23°C° 0,6 mm 2 m/s 703 mmHg 75%
    17:00 +24°C° 0,6 mm 1 m/s 703 mmHg 74%
    18:00 +22°C° 0,5 mm 1 m/s 704 mmHg 78%
    19:00 +21°C° 0,5 mm 1 m/s 704 mmHg 83%
    20:00 +20°C° 0,5 mm 1 m/s 704 mmHg 88%
    21:00 +20°C° 0,1 mm 1 m/s 704 mmHg 89%
    22:00 +19°C° 0,1 mm 1 m/s 704 mmHg 90%
    23:00 +19°C° 0,1 mm 1 m/s 704 mmHg 91%

    25 Juillet, Mercredi

    Heure Température Précipitation Vent Pression Humidité
    00:00 +18°C° 0,5 mm 1 m/s 704 mmHg 91%
    01:00 +18°C° 0,5 mm 1 m/s 704 mmHg 91%
    02:00 +18°C° 0,5 mm 1 m/s 704 mmHg 91%
    03:00 +18°C° 0,2 mm 1 m/s 704 mmHg 91%
    04:00 +18°C° 0,2 mm 1 m/s 704 mmHg 91%
    05:00 +16°C° 0,2 mm 1 m/s 705 mmHg 91%
    06:00 +19°C° 0 mm 1 m/s 705 mmHg 87%
    07:00 +20°C° 0 mm 1 m/s 705 mmHg 82%
    08:00 +22°C° 0 mm 1 m/s 706 mmHg 78%
    09:00 +23°C° 0,5 mm 1 m/s 706 mmHg 73%
    10:00 +24°C° 0,5 mm 1 m/s 706 mmHg 68%
    11:00 +26°C° 0,5 mm 2 m/s 706 mmHg 63%
    12:00 +26°C° 0,7 mm 2 m/s 706 mmHg 61%
    13:00 +27°C° 0,7 mm 2 m/s 705 mmHg 59%
    14:00 +27°C° 0,7 mm 2 m/s 705 mmHg 57%
    15:00 +27°C° 0,4 mm 1 m/s 705 mmHg 57%
    16:00 +27°C° 0,4 mm 1 m/s 705 mmHg 57%
    17:00 +27°C° 0,4 mm 1 m/s 705 mmHg 57%
    18:00 +26°C° 0,3 mm 1 m/s 705 mmHg 63%
    19:00 +24°C° 0,3 mm 1 m/s 705 mmHg 69%
    20:00 +22°C° 0,3 mm 1 m/s 705 mmHg 74%
    21:00 +22°C° 0,4 mm 1 m/s 705 mmHg 77%
    22:00 +21°C° 0,4 mm 1 m/s 705 mmHg 79%
    23:00 +20°C° 0,4 mm 1 m/s 705 mmHg 81%

    26 Juillet, Jeudi

    Heure Température Précipitation Vent Pression Humidité
    00:00 +20°C° 0,1 mm 1 m/s 705 mmHg 82%
    01:00 +20°C° 0,1 mm 1 m/s 705 mmHg 83%
    02:00 +19°C° 0,1 mm 1 m/s 705 mmHg 83%
    03:00 +19°C° 0,1 mm 1 m/s 705 mmHg 84%
    04:00 +19°C° 0,1 mm 1 m/s 705 mmHg 84%
    05:00 +18°C° 0,1 mm 1 m/s 705 mmHg 85%
    06:00 +20°C° 0 mm 1 m/s 706 mmHg 80%
    07:00 +22°C° 0 mm 1 m/s 706 mmHg 76%
    08:00 +23°C° 0 mm 1 m/s 706 mmHg 71%
    09:00 +24°C° 0,3 mm 1 m/s 707 mmHg 67%
    10:00 +25°C° 0,3 mm 1 m/s 707 mmHg 63%
    11:00 +27°C° 0,3 mm 2 m/s 707 mmHg 60%
    12:00 +27°C° 0,5 mm 1 m/s 707 mmHg 58%
    13:00 +28°C° 0,5 mm 1 m/s 707 mmHg 55%
    14:00 +29°C° 0,5 mm 1 m/s 706 mmHg 53%
    15:00 +28°C° 0,4 mm 1 m/s 706 mmHg 54%
    16:00 +28°C° 0,4 mm 1 m/s 706 mmHg 54%
    17:00 +28°C° 0,4 mm 1 m/s 706 mmHg 54%
    18:00 +26°C° 0,2 mm 1 m/s 706 mmHg 60%
    19:00 +25°C° 0,2 mm 1 m/s 706 mmHg 65%
    20:00 +23°C° 0,2 mm 1 m/s 706 mmHg 70%
    21:00 +22°C° 0,2 mm 1 m/s 706 mmHg 72%
    22:00 +22°C° 0,2 mm 1 m/s 707 mmHg 75%
    23:00 +21°C° 0,2 mm 1 m/s 707 mmHg 77%
    Voir plus